Time,TemperatureF,DewpointF,PressureIn,WindDirection,WindDirectionDegrees,WindSpeedMPH,WindSpeedGustMPH,Humidity,HourlyPrecipIn,Conditions,Clouds,dailyrainin,SoftwareType,DateUTC
2013-02-07 00:01:00,20.8,1.9,30.07,SSW,199,10.1,10.5,43,0.00,,CLR,0.00,VWS V14.01,2013-02-07 07:01:00,
2013-02-07 00:06:00,21.2,2.2,30.07,South,189,8.7,10.5,43,0.00,,CLR,0.00,VWS V14.01,2013-02-07 07:06:00,
2013-02-07 00:11:00,21.7,2.7,30.07,SSW,207,8.7,13.2,43,0.00,,CLR,0.00,VWS V14.01,2013-02-07 07:11:00,
2013-02-07 00:16:00,22.6,3.5,30.07,SSW,210,8.7,13.6,43,0.00,,CLR,0.00,VWS V14.01,2013-02-07 07:16:00,
2013-02-07 00:21:00,22.6,3.0,30.07,SSW,201,8.3,13.6,42,0.00,,CLR,0.00,VWS V14.01,2013-02-07 07:21:00,
2013-02-07 00:26:00,22.5,2.8,30.07,SSW,209,10.1,13.6,42,0.00,,CLR,0.00,VWS V14.01,2013-02-07 07:26:00,
2013-02-07 00:31:00,23.4,3.7,30.07,SSW,197,8.1,11.4,42,0.00,,CLR,0.00,VWS V14.01,2013-02-07 07:31:00,
2013-02-07 00:36:00,22.8,3.2,30.07,SW,220,10.1,13.2,42,0.00,,CLR,0.00,VWS V14.01,2013-02-07 07:36:00,
2013-02-07 00:41:00,22.6,3.0,30.07,SW,222,8.7,13.2,42,0.00,,CLR,0.00,VWS V14.01,2013-02-07 07:41:00,
2013-02-07 00:46:00,22.6,3.0,30.07,SW,229,11.0,13.2,42,0.00,,CLR,0.00,VWS V14.01,2013-02-07 07:46:00,
2013-02-07 00:51:00,22.6,3.0,30.07,WSW,238,10.5,13.2,42,0.00,,CLR,0.00,VWS V14.01,2013-02-07 07:51:00,
2013-02-07 00:56:00,24.1,3.8,30.07,SW,231,11.4,13.6,41,0.00,,CLR,0.00,VWS V14.01,2013-02-07 07:56:00,
2013-02-07 01:01:00,22.8,2.7,30.07,WSW,244,12.8,12.8,41,0.00,,CLR,0.00,VWS V14.01,2013-02-07 08:01:00,
2013-02-07 01:06:00,22.5,2.8,30.07,WSW,239,13.2,13.2,42,0.00,,CLR,0.00,VWS V14.01,2013-02-07 08:06:00,
2013-02-07 01:11:00,22.3,2.7,30.07,WSW,243,10.5,13.2,42,0.00,,CLR,0.00,VWS V14.01,2013-02-07 08:11:00,
2013-02-07 01:16:00,22.1,2.0,30.07,SW,226,11.0,14.5,41,0.00,,CLR,0.00,VWS V14.01,2013-02-07 08:16:00,
2013-02-07 01:21:00,21.2,1.7,30.07,SW,226,12.8,15.0,42,0.00,,CLR,0.00,VWS V14.01,2013-02-07 08:21:00,
2013-02-07 01:26:00,21.6,2.0,30.07,SW,230,11.4,15.0,42,0.00,,CLR,0.00,VWS V14.01,2013-02-07 08:26:00,
2013-02-07 01:31:00,21.9,1.8,30.07,SW,218,10.1,15.0,41,0.00,,CLR,0.00,VWS V14.01,2013-02-07 08:31:00,
2013-02-07 01:36:00,23.2,3.0,30.07,SW,236,13.2,13.2,41,0.00,,CLR,0.00,VWS V14.01,2013-02-07 08:36:00,
2013-02-07 01:41:00,22.1,1.5,30.07,SW,222,11.9,15.0,40,0.00,,CLR,0.00,VWS V14.01,2013-02-07 08:41:00,
2013-02-07 01:46:00,22.5,2.3,30.07,SW,218,8.7,15.4,41,0.00,,CLR,0.00,VWS V14.01,2013-02-07 08:46:00,
2013-02-07 01:51:00,22.5,1.8,30.07,SW,233,11.0,15.4,40,0.00,,CLR,0.00,VWS V14.01,2013-02-07 08:51:00,
2013-02-07 01:56:00,22.6,2.0,30.07,SW,220,10.5,15.4,40,0.00,,CLR,0.00,VWS V14.01,2013-02-07 08:56:00,
2013-02-07 02:01:00,21.7,1.1,30.07,SW,227,8.3,8.3,40,0.00,,CLR,0.00,VWS V14.01,2013-02-07 09:01:00,
2013-02-07 02:06:00,21.4,0.8,30.07,SW,222,11.4,13.2,40,0.00,,CLR,0.00,VWS V14.01,2013-02-07 09:06:00,
2013-02-07 02:11:00,21.0,1.0,30.07,SW,225,12.8,13.2,41,0.00,,CLR,0.00,VWS V14.01,2013-02-07 09:11:00,
2013-02-07 02:16:00,21.2,1.2,30.07,SW,219,10.1,13.2,41,0.00,,CLR,0.00,VWS V14.01,2013-02-07 09:16:00,
2013-02-07 02:21:00,21.6,1.0,30.07,WSW,242,10.5,13.2,40,0.00,,CLR,0.00,VWS V14.01,2013-02-07 09:21:00,
2013-02-07 02:26:00,21.6,1.0,30.07,WSW,239,11.0,13.2,40,0.00,,CLR,0.00,VWS V14.01,2013-02-07 09:26:00,
2013-02-07 02:31:00,21.4,0.8,30.07,SW,221,10.1,10.1,40,0.00,,CLR,0.00,VWS V14.01,2013-02-07 09:31:00,
2013-02-07 02:36:00,21.9,0.8,30.07,SW,236,11.0,13.2,39,0.00,,CLR,0.00,VWS V14.01,2013-02-07 09:36:00,
2013-02-07 02:41:00,21.6,0.4,30.07,SW,228,10.5,16.3,39,0.00,,CLR,0.00,VWS V14.01,2013-02-07 09:41:00,
2013-02-07 02:46:00,21.2,0.7,30.07,WSW,237,15.0,16.8,40,0.00,,CLR,0.00,VWS V14.01,2013-02-07 09:46:00,
2013-02-07 02:51:00,20.3,-0.2,30.07,SW,231,11.0,16.8,40,0.00,,CLR,0.00,VWS V14.01,2013-02-07 09:51:00,
2013-02-07 02:56:00,20.5,0.0,30.07,SSW,213,8.7,16.8,40,0.00,,CLR,0.00,VWS V14.01,2013-02-07 09:56:00,
2013-02-07 03:01:00,20.8,0.9,30.07,WSW,241,10.5,16.8,41,0.00,,CLR,0.00,VWS V14.01,2013-02-07 10:01:00,
2013-02-07 03:06:00,20.7,0.2,30.07,SSW,205,10.5,12.3,40,0.00,,CLR,0.00,VWS V14.01,2013-02-07 10:06:00,
2013-02-07 03:11:00,20.7,0.2,30.07,SW,234,10.5,17.0,40,0.00,,CLR,0.00,VWS V14.01,2013-02-07 10:11:00,
2013-02-07 03:16:00,20.3,-0.2,30.07,WSW,245,13.2,17.0,40,0.00,,CLR,0.00,VWS V14.01,2013-02-07 10:16:00,
2013-02-07 03:21:00,20.1,-0.9,30.07,SW,220,10.1,17.0,39,0.00,,CLR,0.00,VWS V14.01,2013-02-07 10:21:00,
2013-02-07 03:26:00,20.5,-0.5,30.07,SW,231,11.0,17.0,39,0.00,,CLR,0.00,VWS V14.01,2013-02-07 10:26:00,
2013-02-07 03:31:00,20.1,-0.9,30.07,SSW,206,10.5,17.0,39,0.00,,CLR,0.00,VWS V14.01,2013-02-07 10:31:00,
2013-02-07 03:36:00,21.2,0.1,30.07,SSW,207,8.7,13.2,39,0.00,,CLR,0.00,VWS V14.01,2013-02-07 10:36:00,
2013-02-07 03:41:00,21.6,-0.1,30.04,SW,220,12.8,13.2,38,0.00,,CLR,0.00,VWS V14.01,2013-02-07 10:41:00,
2013-02-07 03:46:00,21.7,0.1,30.04,WSW,238,13.6,15.4,38,0.00,,CLR,0.00,VWS V14.01,2013-02-07 10:46:00,
2013-02-07 03:51:00,21.2,-0.4,30.04,WSW,253,13.2,15.4,38,0.00,,CLR,0.00,VWS V14.01,2013-02-07 10:51:00,
2013-02-07 03:56:00,20.8,-0.2,30.04,WSW,249,8.7,15.4,39,0.00,,CLR,0.00,VWS V14.01,2013-02-07 10:56:00,
2013-02-07 04:01:00,20.8,-0.8,30.04,SW,224,11.0,15.4,38,0.00,,CLR,0.00,VWS V14.01,2013-02-07 11:01:00,
2013-02-07 04:06:00,20.3,-0.7,30.04,SW,224,15.4,15.4,39,0.00,,CLR,0.00,VWS V14.01,2013-02-07 11:06:00,
2013-02-07 04:11:00,20.5,-1.1,30.04,SW,231,10.5,17.4,38,0.00,,CLR,0.00,VWS V14.01,2013-02-07 11:11:00,
2013-02-07 04:16:00,19.2,-1.7,30.04,SW,218,6.3,17.4,39,0.00,,CLR,0.00,VWS V14.01,2013-02-07 11:16:00,
2013-02-07 04:21:00,20.7,-0.9,30.04,West,265,11.0,17.4,38,0.00,,CLR,0.00,VWS V14.01,2013-02-07 11:21:00,
2013-02-07 04:26:00,20.1,-1.4,30.04,WSW,252,5.8,17.4,38,0.00,,CLR,0.00,VWS V14.01,2013-02-07 11:26:00,
2013-02-07 04:31:00,19.2,-2.2,30.04,West,264,6.3,17.4,38,0.00,,CLR,0.00,VWS V14.01,2013-02-07 11:31:00,
2013-02-07 04:36:00,18.7,-2.2,30.04,WSW,239,9.2,11.0,39,0.00,,CLR,0.00,VWS V14.01,2013-02-07 11:36:00,
2013-02-07 04:41:00,18.7,-2.2,30.04,SW,227,10.5,12.8,39,0.00,,CLR,0.00,VWS V14.01,2013-02-07 11:41:00,
2013-02-07 04:46:00,19.8,-1.7,30.04,SW,234,6.7,13.2,38,0.00,,CLR,0.00,VWS V14.01,2013-02-07 11:46:00,
2013-02-07 04:51:00,19.6,-1.3,30.04,WSW,238,12.3,13.2,39,0.00,,CLR,0.00,VWS V14.01,2013-02-07 11:51:00,
2013-02-07 04:56:00,19.8,-1.7,30.04,WSW,237,8.1,13.2,38,0.00,,CLR,0.00,VWS V14.01,2013-02-07 11:56:00,
2013-02-07 05:01:00,20.1,-1.4,30.04,SW,225,9.6,14.5,38,0.00,,CLR,0.00,VWS V14.01,2013-02-07 12:01:00,
2013-02-07 05:06:00,20.1,-1.4,30.04,SW,217,10.5,15.4,38,0.00,,CLR,0.00,VWS V14.01,2013-02-07 12:06:00,
2013-02-07 05:11:00,20.1,-1.4,30.04,SW,222,8.7,15.4,38,0.00,,CLR,0.00,VWS V14.01,2013-02-07 12:11:00,
2013-02-07 05:16:00,20.5,-1.6,30.04,SW,215,8.7,15.4,37,0.00,,CLR,0.00,VWS V14.01,2013-02-07 12:16:00,
2013-02-07 05:21:00,20.1,-2.0,30.04,SSW,213,8.7,15.4,37,0.00,,CLR,0.00,VWS V14.01,2013-02-07 12:21:00,
2013-02-07 05:26:00,19.8,-2.3,30.04,SW,223,10.5,15.4,37,0.00,,CLR,0.00,VWS V14.01,2013-02-07 12:26:00,
2013-02-07 05:31:00,21.2,-1.0,30.04,SW,224,8.1,15.4,37,0.00,,CLR,0.00,VWS V14.01,2013-02-07 12:31:00,
2013-02-07 05:36:00,20.7,-1.5,30.04,SSW,202,8.1,10.1,37,0.00,,CLR,0.00,VWS V14.01,2013-02-07 12:36:00,
2013-02-07 05:41:00,21.2,-1.0,30.04,SSW,213,7.6,10.5,37,0.00,,CLR,0.00,VWS V14.01,2013-02-07 12:41:00,
2013-02-07 05:46:00,21.2,-1.6,30.04,South,178,5.4,10.5,36,0.00,,CLR,0.00,VWS V14.01,2013-02-07 12:46:00,
2013-02-07 05:51:00,21.2,-1.0,30.04,SW,215,10.5,11.0,37,0.00,,CLR,0.00,VWS V14.01,2013-02-07 12:51:00,
2013-02-07 05:56:00,21.6,-1.2,30.04,SW,223,10.5,12.3,36,0.00,,CLR,0.00,VWS V14.01,2013-02-07 12:56:00,
2013-02-07 06:01:00,21.7,-1.1,30.04,SSW,209,10.5,12.3,36,0.00,,CLR,0.00,VWS V14.01,2013-02-07 13:01:00,
2013-02-07 06:06:00,22.1,-0.8,30.04,SSW,212,8.3,10.5,36,0.00,,CLR,0.00,VWS V14.01,2013-02-07 13:06:00,
2013-02-07 06:11:00,21.6,-1.2,30.01,SSW,201,5.8,10.5,36,0.00,,CLR,0.00,VWS V14.01,2013-02-07 13:11:00,
2013-02-07 06:16:00,21.0,-1.7,30.01,SW,227,8.7,10.5,36,0.00,,CLR,0.00,VWS V14.01,2013-02-07 13:16:00,
2013-02-07 06:21:00,20.7,-2.1,30.01,SSW,200,8.7,12.3,36,0.00,,CLR,0.00,VWS V14.01,2013-02-07 13:21:00,
2013-02-07 06:26:00,21.9,-0.9,30.01,SSW,213,11.0,12.3,36,0.00,,CLR,0.00,VWS V14.01,2013-02-07 13:26:00,
2013-02-07 06:31:00,20.5,-1.6,30.01,WSW,247,12.3,13.2,37,0.00,,CLR,0.00,VWS V14.01,2013-02-07 13:31:00,
2013-02-07 06:36:00,20.3,-2.4,30.01,SW,222,8.7,13.2,36,0.00,,CLR,0.00,VWS V14.01,2013-02-07 13:36:00,
2013-02-07 06:41:00,20.3,-2.4,30.01,SSW,206,6.3,13.2,36,0.00,,CLR,0.00,VWS V14.01,2013-02-07 13:41:00,
2013-02-07 06:46:00,20.1,-2.5,30.01,SW,227,8.7,13.2,36,0.00,,CLR,0.00,VWS V14.01,2013-02-07 13:46:00,
2013-02-07 06:51:00,19.6,-3.0,30.01,SW,225,8.7,13.2,36,0.00,,CLR,0.00,VWS V14.01,2013-02-07 13:51:00,
2013-02-07 06:56:00,20.1,-2.0,30.01,SW,226,9.2,13.2,37,0.00,,CLR,0.00,VWS V14.01,2013-02-07 13:56:00,
2013-02-07 07:01:00,19.9,-2.1,30.01,SW,217,7.6,13.2,37,0.00,,CLR,0.00,VWS V14.01,2013-02-07 14:01:00,
2013-02-07 07:06:00,19.9,-2.7,30.01,SSW,203,8.1,11.0,36,0.00,,CLR,0.00,VWS V14.01,2013-02-07 14:06:00,
2013-02-07 07:11:00,20.8,-1.9,30.01,SSW,199,8.7,11.0,36,0.00,,CLR,0.00,VWS V14.01,2013-02-07 14:11:00,
2013-02-07 07:16:00,20.5,-2.2,30.01,SW,224,6.3,11.0,36,0.00,,CLR,0.00,VWS V14.01,2013-02-07 14:16:00,
2013-02-07 07:21:00,19.2,-2.8,30.01,SW,219,4.0,11.0,37,0.00,,CLR,0.00,VWS V14.01,2013-02-07 14:21:00,
2013-02-07 07:26:00,18.3,-3.6,30.01,SW,232,5.8,11.0,37,0.00,,CLR,0.00,VWS V14.01,2013-02-07 14:26:00,
2013-02-07 07:31:00,17.1,-4.2,30.01,SW,226,4.5,11.0,38,0.00,,CLR,0.00,VWS V14.01,2013-02-07 14:31:00,
2013-02-07 07:36:00,17.8,-3.5,30.01,SSW,203,5.8,7.6,38,0.00,,CLR,0.00,VWS V14.01,2013-02-07 14:36:00,
2013-02-07 07:41:00,20.1,-2.0,30.01,SW,226,6.3,7.6,37,0.00,,CLR,0.00,VWS V14.01,2013-02-07 14:41:00,
2013-02-07 07:46:00,21.2,-1.0,30.01,SSW,205,7.6,7.6,37,0.00,,CLR,0.00,VWS V14.01,2013-02-07 14:46:00,
2013-02-07 07:51:00,21.6,-1.2,30.01,SSW,209,4.0,10.1,36,0.00,,CLR,0.00,VWS V14.01,2013-02-07 14:51:00,
2013-02-07 07:56:00,23.0,0.0,30.01,SSW,208,4.0,10.1,36,0.00,,CLR,0.00,VWS V14.01,2013-02-07 14:56:00,
2013-02-07 08:01:00,23.7,0.7,30.01,SW,235,5.4,10.1,36,0.00,,CLR,0.00,VWS V14.01,2013-02-07 15:01:00,
2013-02-07 08:06:00,24.8,1.6,30.01,WSW,239,4.9,8.1,36,0.00,,CLR,0.00,VWS V14.01,2013-02-07 15:06:00,
2013-02-07 08:11:00,24.3,1.2,30.01,SSW,213,4.0,8.1,36,0.00,,CLR,0.00,VWS V14.01,2013-02-07 15:11:00,
2013-02-07 08:16:00,27.5,3.5,30.01,SSW,200,6.3,8.1,35,0.00,,CLR,0.00,VWS V14.01,2013-02-07 15:16:00,
2013-02-07 08:21:00,26.8,2.8,30.01,SW,214,8.1,8.3,35,0.00,,CLR,0.00,VWS V14.01,2013-02-07 15:21:00,
2013-02-07 08:26:00,28.9,4.7,30.01,South,173,4.0,8.3,35,0.00,,CLR,0.00,VWS V14.01,2013-02-07 15:26:00,
2013-02-07 08:31:00,31.6,6.5,30.01,SSW,207,5.4,8.3,34,0.00,,CLR,0.00,VWS V14.01,2013-02-07 15:31:00,
2013-02-07 08:36:00,32.5,6.6,30.01,SE,144,6.3,6.3,33,0.00,,CLR,0.00,VWS V14.01,2013-02-07 15:36:00,
2013-02-07 08:41:00,32.7,6.8,30.01,ESE,112,5.8,6.3,33,0.00,,CLR,0.00,VWS V14.01,2013-02-07 15:41:00,
2013-02-07 08:46:00,27.9,3.8,30.01,SE,143,5.8,8.1,35,0.00,,CLR,0.00,VWS V14.01,2013-02-07 15:46:00,
2013-02-07 08:51:00,27.3,6.2,30.01,SE,136,4.5,8.1,40,0.00,,CLR,0.00,VWS V14.01,2013-02-07 15:51:00,
2013-02-07 08:56:00,30.4,7.8,30.01,SSE,154,3.6,8.1,38,0.00,,CLR,0.00,VWS V14.01,2013-02-07 15:56:00,
2013-02-07 09:01:00,32.2,8.9,30.01,SSE,162,2.7,8.1,37,0.00,,CLR,0.00,VWS V14.01,2013-02-07 16:01:00,
2013-02-07 09:05:00,30.6,6.8,30.01,SSE,166,5.8,8.1,36,0.00,,CLR,0.00,VWS V14.01,2013-02-07 16:05:00,
2013-02-07 09:10:00,28.4,6.1,30.01,SE,144,4.9,8.7,38,0.00,,CLR,0.00,VWS V14.01,2013-02-07 16:10:00,
2013-02-07 09:15:00,28.8,6.4,30.01,SE,145,7.6,8.7,38,0.00,,CLR,0.00,VWS V14.01,2013-02-07 16:15:00,
2013-02-07 09:20:00,28.2,7.0,30.01,SSE,159,6.3,10.1,40,0.00,,CLR,0.00,VWS V14.01,2013-02-07 16:20:00,
2013-02-07 09:25:00,31.8,9.7,30.01,SSE,165,2.7,10.1,39,0.00,,CLR,0.00,VWS V14.01,2013-02-07 16:25:00,
2013-02-07 09:30:00,34.2,10.6,30.01,South,189,4.0,10.1,37,0.00,,CLR,0.00,VWS V14.01,2013-02-07 16:30:00,
2013-02-07 09:35:00,28.6,6.2,30.01,SE,133,6.3,10.1,38,0.00,,CLR,0.00,VWS V14.01,2013-02-07 16:35:00,
2013-02-07 09:40:00,26.4,5.4,30.01,ESE,117,8.7,10.1,40,0.00,,CLR,0.00,VWS V14.01,2013-02-07 16:40:00,
2013-02-07 09:45:00,25.2,5.3,30.01,SE,138,8.7,10.1,42,0.00,,CLR,0.00,VWS V14.01,2013-02-07 16:45:00,
2013-02-07 09:50:00,24.6,4.8,30.01,SE,145,6.3,11.4,42,0.00,,CLR,0.00,VWS V14.01,2013-02-07 16:50:00,
2013-02-07 09:55:00,24.8,5.5,30.01,SSE,160,3.6,11.4,43,0.00,,CLR,0.00,VWS V14.01,2013-02-07 16:55:00,
2013-02-07 10:00:00,25.0,5.1,30.01,SE,145,8.3,11.4,42,0.00,,CLR,0.00,VWS V14.01,2013-02-07 17:00:00,
2013-02-07 10:05:00,25.2,5.3,30.01,South,169,4.5,10.5,42,0.00,,CLR,0.00,VWS V14.01,2013-02-07 17:05:00,
2013-02-07 10:10:00,25.2,5.3,30.01,South,169,7.6,10.5,42,0.00,,CLR,0.00,VWS V14.01,2013-02-07 17:10:00,
2013-02-07 10:15:00,25.2,5.3,30.01,SE,130,6.3,10.5,42,0.00,,CLR,0.00,VWS V14.01,2013-02-07 17:15:00,
2013-02-07 10:20:00,30.9,9.4,30.01,SE,127,3.6,10.5,40,0.00,,CLR,0.00,VWS V14.01,2013-02-07 17:20:00,
2013-02-07 10:25:00,31.8,9.1,30.01,SE,140,6.7,10.5,38,0.00,,CLR,0.00,VWS V14.01,2013-02-07 17:25:00,
2013-02-07 10:30:00,30.4,7.2,30.01,ESE,105,8.7,10.5,37,0.00,,CLR,0.00,VWS V14.01,2013-02-07 17:30:00,
2013-02-07 10:35:00,31.6,9.0,30.01,ESE,112,8.7,10.5,38,0.00,,CLR,0.00,VWS V14.01,2013-02-07 17:35:00,
2013-02-07 10:40:00,32.5,9.2,30.01,SE,134,6.3,10.5,37,0.00,,CLR,0.00,VWS V14.01,2013-02-07 17:40:00,
2013-02-07 10:45:00,30.7,7.6,30.01,ESE,122,6.3,10.5,37,0.00,,CLR,0.00,VWS V14.01,2013-02-07 17:45:00,
2013-02-07 10:50:00,34.0,10.5,30.01,SE,136,5.4,10.5,37,0.00,,CLR,0.00,VWS V14.01,2013-02-07 17:50:00,
2013-02-07 10:55:00,31.5,8.2,30.01,SE,125,6.3,10.5,37,0.00,,CLR,0.00,VWS V14.01,2013-02-07 17:55:00,
2013-02-07 11:00:00,33.8,10.3,30.01,SE,133,0.0,10.5,37,0.00,,CLR,0.00,VWS V14.01,2013-02-07 18:00:00,
2013-02-07 11:05:00,34.5,10.3,30.01,SE,127,0.0,3.1,36,0.00,,CLR,0.00,VWS V14.01,2013-02-07 18:05:00,
2013-02-07 11:10:00,34.3,10.2,30.01,SE,142,3.6,4.9,36,0.00,,CLR,0.00,VWS V14.01,2013-02-07 18:10:00,
2013-02-07 11:15:00,36.9,12.4,30.01,ESE,113,2.7,4.9,36,0.00,,CLR,0.00,VWS V14.01,2013-02-07 18:15:00,
2013-02-07 11:20:00,35.2,11.0,30.01,ESE,107,5.4,5.8,36,0.00,,CLR,0.00,VWS V14.01,2013-02-07 18:20:00,
2013-02-07 11:25:00,34.5,10.3,30.01,East,101,4.0,6.3,36,0.00,,CLR,0.00,VWS V14.01,2013-02-07 18:25:00,
2013-02-07 11:30:00,33.1,9.7,30.01,SE,130,3.6,7.2,37,0.00,,CLR,0.00,VWS V14.01,2013-02-07 18:30:00,
2013-02-07 11:35:00,32.5,9.8,30.01,SSE,149,5.8,7.6,38,0.00,,CLR,0.00,VWS V14.01,2013-02-07 18:35:00,
2013-02-07 11:40:00,33.3,10.4,30.01,SE,130,5.4,7.6,38,0.00,,CLR,0.00,VWS V14.01,2013-02-07 18:40:00,
2013-02-07 11:45:00,34.3,11.4,30.01,SSE,150,0.0,7.6,38,0.00,,CLR,0.00,VWS V14.01,2013-02-07 18:45:00,
2013-02-07 11:50:00,35.6,11.9,30.01,SSW,204,0.0,7.6,37,0.00,,CLR,0.00,VWS V14.01,2013-02-07 18:50:00,
2013-02-07 11:55:00,34.2,11.2,30.01,East,80,4.0,7.6,38,0.00,,CLR,0.00,VWS V14.01,2013-02-07 18:55:00,
2013-02-07 12:00:00,32.9,10.7,29.98,East,85,2.7,7.6,39,0.00,,CLR,0.00,VWS V14.01,2013-02-07 19:00:00,
2013-02-07 12:05:00,32.7,11.1,29.98,ESE,102,5.8,5.8,40,0.00,,CLR,0.00,VWS V14.01,2013-02-07 19:05:00,
2013-02-07 12:10:00,32.0,10.4,29.98,East,89,6.3,8.1,40,0.00,,CLR,0.00,VWS V14.01,2013-02-07 19:10:00,
2013-02-07 12:15:00,32.0,10.4,29.98,ESE,107,5.4,8.1,40,0.00,,CLR,0.00,VWS V14.01,2013-02-07 19:15:00,
2013-02-07 12:20:00,31.1,9.6,29.98,East,86,5.8,10.1,40,0.00,,CLR,0.00,VWS V14.01,2013-02-07 19:20:00,
2013-02-07 12:25:00,30.9,9.4,29.98,ESE,104,5.8,10.1,40,0.00,,CLR,0.00,VWS V14.01,2013-02-07 19:25:00,
2013-02-07 12:30:00,32.0,10.4,29.98,ESE,114,5.4,10.1,40,0.00,,CLR,0.00,VWS V14.01,2013-02-07 19:30:00,
2013-02-07 12:35:00,32.2,10.6,29.98,SE,145,4.9,8.3,40,0.00,,CLR,0.00,VWS V14.01,2013-02-07 19:35:00,
2013-02-07 12:40:00,32.4,10.8,29.98,East,100,3.6,8.3,40,0.00,,CLR,0.00,VWS V14.01,2013-02-07 19:40:00,
2013-02-07 12:45:00,32.2,10.6,29.98,East,92,3.6,8.3,40,0.00,,CLR,0.00,VWS V14.01,2013-02-07 19:45:00,
2013-02-07 12:50:00,32.5,10.9,29.98,ESE,115,5.4,8.3,40,0.00,,CLR,0.00,VWS V14.01,2013-02-07 19:50:00,
2013-02-07 12:55:00,32.2,10.6,29.98,ESE,106,4.9,8.3,40,0.00,,CLR,0.00,VWS V14.01,2013-02-07 19:55:00,
2013-02-07 13:00:00,32.9,11.2,29.98,ESE,102,2.7,8.3,40,0.00,,CLR,0.00,VWS V14.01,2013-02-07 20:00:00,
2013-02-07 13:05:00,32.9,11.2,29.98,SSE,147,5.4,7.6,40,0.00,,CLR,0.00,VWS V14.01,2013-02-07 20:05:00,
2013-02-07 13:10:00,33.1,12.0,29.98,ESE,112,10.1,10.1,41,0.00,,CLR,0.00,VWS V14.01,2013-02-07 20:10:00,
2013-02-07 13:15:00,32.7,11.6,29.98,ESE,108,5.8,10.1,41,0.00,,CLR,0.00,VWS V14.01,2013-02-07 20:15:00,
2013-02-07 13:20:00,32.7,12.2,29.98,East,100,5.8,10.5,42,0.00,,CLR,0.00,VWS V14.01,2013-02-07 20:20:00,
2013-02-07 13:25:00,34.3,14.2,29.98,East,100,5.4,10.5,43,0.00,,CLR,0.00,VWS V14.01,2013-02-07 20:25:00,
2013-02-07 13:30:00,34.0,13.9,29.98,East,100,6.3,10.5,43,0.00,,CLR,0.00,VWS V14.01,2013-02-07 20:30:00,
2013-02-07 13:35:00,33.8,13.7,29.98,ESE,121,12.3,13.2,43,0.00,,CLR,0.00,VWS V14.01,2013-02-07 20:35:00,
2013-02-07 13:40:00,34.0,13.9,29.98,ESE,118,10.5,13.2,43,0.00,,CLR,0.00,VWS V14.01,2013-02-07 20:40:00,
2013-02-07 13:45:00,34.5,13.8,29.95,ESE,115,5.4,13.2,42,0.00,,CLR,0.00,VWS V14.01,2013-02-07 20:45:00,
2013-02-07 13:50:00,33.6,13.5,29.95,ESE,117,11.0,13.2,43,0.00,,CLR,0.00,VWS V14.01,2013-02-07 20:50:00,
2013-02-07 13:55:00,35.1,14.8,29.95,ESE,107,5.4,13.2,43,0.00,,CLR,0.00,VWS V14.01,2013-02-07 20:55:00,
2013-02-07 14:00:00,35.1,14.8,29.95,SSE,155,6.3,13.2,43,0.00,,CLR,0.00,VWS V14.01,2013-02-07 21:00:00,
2013-02-07 14:05:00,34.9,14.1,29.95,East,95,7.6,11.0,42,0.00,,CLR,0.00,VWS V14.01,2013-02-07 21:05:00,
2013-02-07 14:10:00,35.1,14.8,29.95,ESE,118,7.6,11.0,43,0.00,,CLR,0.00,VWS V14.01,2013-02-07 21:10:00,
2013-02-07 14:15:00,35.1,14.8,29.95,East,99,7.6,13.6,43,0.00,,CLR,0.00,VWS V14.01,2013-02-07 21:15:00,
2013-02-07 14:20:00,34.5,13.8,29.95,ESE,117,12.3,14.5,42,0.00,,CLR,0.00,VWS V14.01,2013-02-07 21:20:00,
2013-02-07 14:25:00,35.8,14.9,29.95,ESE,107,6.3,14.5,42,0.00,,CLR,0.00,VWS V14.01,2013-02-07 21:25:00,
2013-02-07 14:30:00,35.2,13.9,29.95,ESE,123,11.0,14.5,41,0.00,,CLR,0.00,VWS V14.01,2013-02-07 21:30:00,
2013-02-07 14:35:00,35.4,14.1,29.95,SE,134,11.0,13.2,41,0.00,,CLR,0.00,VWS V14.01,2013-02-07 21:35:00,
2013-02-07 14:40:00,35.6,14.2,29.95,ESE,112,9.6,13.2,41,0.00,,CLR,0.00,VWS V14.01,2013-02-07 21:40:00,
2013-02-07 14:45:00,35.6,14.2,29.95,ESE,112,7.6,13.6,41,0.00,,CLR,0.00,VWS V14.01,2013-02-07 21:45:00,
2013-02-07 14:50:00,35.6,13.7,29.95,SE,124,11.0,13.6,40,0.00,,CLR,0.00,VWS V14.01,2013-02-07 21:50:00,
2013-02-07 14:55:00,36.1,14.2,29.95,ESE,114,8.3,13.6,40,0.00,,CLR,0.00,VWS V14.01,2013-02-07 21:55:00,
2013-02-07 15:00:00,35.6,13.7,29.95,SE,124,8.7,13.6,40,0.00,,CLR,0.00,VWS V14.01,2013-02-07 22:00:00,
2013-02-07 15:05:00,35.2,13.4,29.95,ESE,117,11.0,14.5,40,0.00,,CLR,0.00,VWS V14.01,2013-02-07 22:05:00,
2013-02-07 15:10:00,35.2,13.4,29.95,ESE,110,10.1,14.5,40,0.00,,CLR,0.00,VWS V14.01,2013-02-07 22:10:00,
2013-02-07 15:15:00,35.6,13.1,29.95,ESE,104,11.4,14.5,39,0.00,,CLR,0.00,VWS V14.01,2013-02-07 22:15:00,
2013-02-07 15:20:00,35.4,13.5,29.95,ESE,107,8.3,14.5,40,0.00,,CLR,0.00,VWS V14.01,2013-02-07 22:20:00,
2013-02-07 15:25:00,35.2,13.4,29.95,ESE,111,15.4,15.9,40,0.00,,CLR,0.00,VWS V14.01,2013-02-07 22:25:00,
2013-02-07 15:30:00,34.9,13.0,29.95,ESE,117,12.3,15.9,40,0.00,,CLR,0.00,VWS V14.01,2013-02-07 22:30:00,
2013-02-07 15:35:00,34.3,12.5,29.95,East,92,10.5,13.2,40,0.00,,CLR,0.00,VWS V14.01,2013-02-07 22:35:00,
2013-02-07 15:40:00,33.8,12.1,29.95,East,89,8.1,13.2,40,0.00,,CLR,0.00,VWS V14.01,2013-02-07 22:40:00,
2013-02-07 15:45:00,34.0,12.2,29.95,ESE,115,7.6,13.6,40,0.00,,CLR,0.00,VWS V14.01,2013-02-07 22:45:00,
2013-02-07 15:50:00,33.6,12.4,29.95,ESE,104,10.1,13.6,41,0.00,,CLR,0.00,VWS V14.01,2013-02-07 22:50:00,
2013-02-07 15:55:00,33.6,12.4,29.95,ESE,106,7.6,13.6,41,0.00,,CLR,0.00,VWS V14.01,2013-02-07 22:55:00,
2013-02-07 16:00:00,33.1,12.0,29.95,ESE,118,13.2,13.6,41,0.00,,CLR,0.00,VWS V14.01,2013-02-07 23:00:00,
2013-02-07 16:05:00,32.7,11.6,29.95,ESE,108,7.6,11.0,41,0.00,,CLR,0.00,VWS V14.01,2013-02-07 23:05:00,
2013-02-07 16:10:00,32.7,12.2,29.95,ESE,122,8.1,11.0,42,0.00,,CLR,0.00,VWS V14.01,2013-02-07 23:10:00,
2013-02-07 16:15:00,32.7,12.2,29.95,SE,131,5.8,11.0,42,0.00,,CLR,0.00,VWS V14.01,2013-02-07 23:15:00,
2013-02-07 16:20:00,33.3,12.7,29.95,SE,135,5.4,11.0,42,0.00,,CLR,0.00,VWS V14.01,2013-02-07 23:20:00,
2013-02-07 16:25:00,32.9,12.3,29.95,ESE,119,4.0,11.0,42,0.00,,CLR,0.00,VWS V14.01,2013-02-07 23:25:00,
2013-02-07 16:30:00,32.2,12.2,29.95,ESE,106,2.7,11.0,43,0.00,,CLR,0.00,VWS V14.01,2013-02-07 23:30:00,
2013-02-07 16:35:00,31.8,11.9,29.95,SSE,165,4.9,5.8,43,0.00,,CLR,0.00,VWS V14.01,2013-02-07 23:35:00,
2013-02-07 16:40:00,31.5,12.1,29.95,SE,142,4.0,6.3,44,0.00,,CLR,0.00,VWS V14.01,2013-02-07 23:40:00,
2013-02-07 16:45:00,30.9,12.1,29.95,SSE,166,5.8,6.3,45,0.00,,CLR,0.00,VWS V14.01,2013-02-07 23:45:00,
2013-02-07 16:50:00,30.7,11.9,29.95,South,176,4.9,6.3,45,0.00,,CLR,0.00,VWS V14.01,2013-02-07 23:50:00,
2013-02-07 16:55:00,30.2,11.9,29.95,SE,132,4.0,6.3,46,0.00,,CLR,0.00,VWS V14.01,2013-02-07 23:55:00,
2013-02-07 17:00:00,29.5,11.8,29.95,SSE,168,4.0,6.3,47,0.00,,CLR,0.00,VWS V14.01,2013-02-08 00:00:00,
2013-02-07 17:05:00,29.5,12.2,29.95,SSE,154,4.0,4.0,48,0.00,,CLR,0.00,VWS V14.01,2013-02-08 00:05:00,
2013-02-07 17:10:00,29.1,12.4,29.95,SSE,167,3.1,4.0,49,0.00,,CLR,0.00,VWS V14.01,2013-02-08 00:10:00,
2013-02-07 17:15:00,28.6,11.9,29.95,SSW,197,4.9,4.9,49,0.00,,CLR,0.00,VWS V14.01,2013-02-08 00:15:00,
2013-02-07 17:20:00,28.6,12.8,29.95,SSE,157,3.1,5.8,51,0.00,,CLR,0.00,VWS V14.01,2013-02-08 00:20:00,
2013-02-07 17:25:00,27.9,12.1,29.95,SSE,158,3.1,5.8,51,0.00,,CLR,0.00,VWS V14.01,2013-02-08 00:25:00,
2013-02-07 17:30:00,28.2,12.4,29.95,SSE,163,4.0,5.8,51,0.00,,CLR,0.00,VWS V14.01,2013-02-08 00:30:00,
2013-02-07 17:35:00,28.4,11.7,29.95,SSE,150,3.6,5.4,49,0.00,,CLR,0.00,VWS V14.01,2013-02-08 00:35:00,
2013-02-07 17:40:00,27.9,12.1,29.95,South,186,3.1,5.4,51,0.00,,CLR,0.00,VWS V14.01,2013-02-08 00:40:00,
2013-02-07 17:45:00,26.6,11.8,29.95,SW,219,2.7,5.4,53,0.00,,CLR,0.00,VWS V14.01,2013-02-08 00:45:00,
2013-02-07 17:50:00,28.2,12.4,29.95,SSE,154,3.1,5.8,51,0.00,,CLR,0.00,VWS V14.01,2013-02-08 00:50:00,
2013-02-07 17:55:00,27.1,11.4,29.95,West,278,6.3,6.3,51,0.00,,CLR,0.00,VWS V14.01,2013-02-08 00:55:00,
2013-02-07 18:00:00,27.1,11.0,29.95,WNW,297,0.0,6.3,50,0.00,,CLR,0.00,VWS V14.01,2013-02-08 01:00:00,
2013-02-07 18:05:00,26.6,11.4,29.95,ENE,58,4.9,4.9,52,0.00,,CLR,0.00,VWS V14.01,2013-02-08 01:05:00,
2013-02-07 18:10:00,26.1,10.9,29.95,SE,134,0.0,4.9,52,0.00,,CLR,0.00,VWS V14.01,2013-02-08 01:10:00,
2013-02-07 18:15:00,27.1,11.9,29.95,SE,128,4.0,4.9,52,0.00,,CLR,0.00,VWS V14.01,2013-02-08 01:15:00,
2013-02-07 18:20:00,28.4,11.2,29.95,SE,131,5.4,8.7,48,0.00,,CLR,0.00,VWS V14.01,2013-02-08 01:20:00,
2013-02-07 18:25:00,28.4,11.2,29.95,SE,125,5.4,8.7,48,0.00,,CLR,0.00,VWS V14.01,2013-02-08 01:25:00,
2013-02-07 18:30:00,28.4,11.2,29.95,SSE,157,4.9,8.7,48,0.00,,CLR,0.00,VWS V14.01,2013-02-08 01:30:00,
2013-02-07 18:35:00,27.0,11.3,29.95,SE,140,4.0,6.3,51,0.00,,CLR,0.00,VWS V14.01,2013-02-08 01:35:00,
2013-02-07 18:40:00,25.7,10.5,29.95,WSW,238,4.0,6.3,52,0.00,,CLR,0.00,VWS V14.01,2013-02-08 01:40:00,
2013-02-07 18:45:00,24.4,10.2,29.95,SSW,211,3.1,7.6,54,0.00,,CLR,0.00,VWS V14.01,2013-02-08 01:45:00,
2013-02-07 18:50:00,24.1,9.9,29.95,WSW,242,4.0,7.6,54,0.00,,CLR,0.00,VWS V14.01,2013-02-08 01:50:00,
2013-02-07 18:55:00,23.4,10.0,29.95,SSW,207,3.6,8.7,56,0.00,,CLR,0.00,VWS V14.01,2013-02-08 01:55:00,
2013-02-07 19:00:00,25.9,11.5,29.92,SE,141,7.6,8.7,54,0.00,,CLR,0.00,VWS V14.01,2013-02-08 02:00:00,
2013-02-07 19:05:00,27.0,9.9,29.92,South,189,7.6,10.1,48,0.00,,CLR,0.00,VWS V14.01,2013-02-08 02:05:00,
2013-02-07 19:10:00,25.5,9.5,29.92,SSW,192,5.8,10.1,50,0.00,,CLR,0.00,VWS V14.01,2013-02-08 02:10:00,
2013-02-07 19:15:00,25.5,7.6,29.92,SSW,211,5.8,10.1,46,0.00,,CLR,0.00,VWS V14.01,2013-02-08 02:15:00,
2013-02-07 19:20:00,28.8,8.0,29.92,South,169,8.3,10.1,41,0.00,,CLR,0.00,VWS V14.01,2013-02-08 02:20:00,
2013-02-07 19:25:00,29.1,7.8,29.92,West,259,5.4,10.5,40,0.00,,CLR,0.00,VWS V14.01,2013-02-08 02:25:00,
2013-02-07 19:30:00,24.8,5.5,29.92,WSW,242,6.7,10.5,43,0.00,,CLR,0.00,VWS V14.01,2013-02-08 02:30:00,
2013-02-07 19:35:00,23.9,4.7,29.92,SW,231,4.9,8.1,43,0.00,,CLR,0.00,VWS V14.01,2013-02-08 02:35:00,
2013-02-07 19:40:00,23.9,4.2,29.92,WSW,243,8.3,8.3,42,0.00,,CLR,0.00,VWS V14.01,2013-02-08 02:40:00,
2013-02-07 19:45:00,24.8,3.9,29.92,SW,221,8.3,8.7,40,0.00,,CLR,0.00,VWS V14.01,2013-02-08 02:45:00,
2013-02-07 19:50:00,26.2,4.1,29.92,WSW,248,6.3,9.2,38,0.00,,CLR,0.00,VWS V14.01,2013-02-08 02:50:00,
2013-02-07 19:55:00,27.9,3.8,29.92,West,273,10.1,11.0,35,0.00,,CLR,0.00,VWS V14.01,2013-02-08 02:55:00,
2013-02-07 20:00:00,26.8,2.8,29.92,WSW,251,8.3,11.0,35,0.00,,CLR,0.00,VWS V14.01,2013-02-08 03:00:00,
2013-02-07 20:05:00,27.9,3.2,29.92,SW,214,6.7,8.3,34,0.00,,CLR,0.00,VWS V14.01,2013-02-08 03:05:00,
2013-02-07 20:10:00,27.7,3.0,29.92,SW,230,6.3,9.2,34,0.00,,CLR,0.00,VWS V14.01,2013-02-08 03:10:00,
2013-02-07 20:15:00,27.5,2.8,29.92,WSW,257,6.3,9.2,34,0.00,,CLR,0.00,VWS V14.01,2013-02-08 03:15:00,
2013-02-07 20:20:00,26.2,2.3,29.92,WSW,243,5.4,9.2,35,0.00,,CLR,0.00,VWS V14.01,2013-02-08 03:20:00,
2013-02-07 20:25:00,26.4,2.5,29.92,WSW,248,5.8,9.2,35,0.00,,CLR,0.00,VWS V14.01,2013-02-08 03:25:00,
2013-02-07 20:30:00,25.3,0.9,29.92,WSW,256,8.3,9.2,34,0.00,,CLR,0.00,VWS V14.01,2013-02-08 03:30:00,
2013-02-07 20:35:00,30.2,3.9,29.92,West,267,12.3,12.3,32,0.00,,CLR,0.00,VWS V14.01,2013-02-08 03:35:00,
2013-02-07 20:40:00,29.1,3.0,29.92,WNW,282,10.5,12.3,32,0.00,,CLR,0.00,VWS V14.01,2013-02-08 03:40:00,
2013-02-07 20:45:00,28.0,2.7,29.92,West,261,8.1,12.8,33,0.00,,CLR,0.00,VWS V14.01,2013-02-08 03:45:00,
2013-02-07 20:50:00,27.3,2.0,29.92,WSW,253,10.1,12.8,33,0.00,,CLR,0.00,VWS V14.01,2013-02-08 03:50:00,
2013-02-07 20:55:00,27.1,1.9,29.92,WSW,239,8.1,12.8,33,0.00,,CLR,0.00,VWS V14.01,2013-02-08 03:55:00,
2013-02-07 21:00:00,26.2,1.7,29.92,SW,232,8.7,12.8,34,0.00,,CLR,0.00,VWS V14.01,2013-02-08 04:00:00,
2013-02-07 21:05:00,27.0,1.7,29.92,WSW,242,10.1,13.2,33,0.00,,CLR,0.00,VWS V14.01,2013-02-08 04:05:00,
2013-02-07 21:10:00,26.8,1.5,29.92,WSW,238,10.5,13.2,33,0.00,,CLR,0.00,VWS V14.01,2013-02-08 04:10:00,
2013-02-07 21:15:00,27.9,2.5,29.92,WSW,247,12.3,13.2,33,0.00,,CLR,0.00,VWS V14.01,2013-02-08 04:15:00,
2013-02-07 21:20:00,27.3,2.0,29.92,SW,229,6.3,13.2,33,0.00,,CLR,0.00,VWS V14.01,2013-02-08 04:20:00,
2013-02-07 21:25:00,27.1,1.9,29.92,WSW,238,7.6,13.2,33,0.00,,CLR,0.00,VWS V14.01,2013-02-08 04:25:00,
2013-02-07 21:30:00,25.9,1.4,29.92,WSW,258,4.0,13.2,34,0.00,,CLR,0.00,VWS V14.01,2013-02-08 04:30:00,
2013-02-07 21:35:00,24.1,-0.2,29.92,West,264,5.8,5.8,34,0.00,,CLR,0.00,VWS V14.01,2013-02-08 04:35:00,
2013-02-07 21:40:00,24.1,0.4,29.92,WSW,239,8.7,8.7,35,0.00,,CLR,0.00,VWS V14.01,2013-02-08 04:40:00,
2013-02-07 21:45:00,24.8,0.4,29.92,SW,224,8.1,10.5,34,0.00,,CLR,0.00,VWS V14.01,2013-02-08 04:45:00,
2013-02-07 21:50:00,26.2,1.7,29.92,SW,225,5.4,10.5,34,0.00,,CLR,0.00,VWS V14.01,2013-02-08 04:50:00,
2013-02-07 21:55:00,25.9,1.4,29.92,West,266,8.1,10.5,34,0.00,,CLR,0.00,VWS V14.01,2013-02-08 04:55:00,
2013-02-07 22:00:00,25.3,0.9,29.92,West,264,6.3,10.5,34,0.00,,CLR,0.00,VWS V14.01,2013-02-08 05:00:00,
2013-02-07 22:01:00,25.2,0.8,29.92,WSW,251,7.6,10.5,34,0.00,,CLR,0.00,VWS V14.01,2013-02-08 05:01:00,
2013-02-07 22:06:00,24.4,0.7,29.92,WSW,241,5.4,8.3,35,0.00,,CLR,0.00,VWS V14.01,2013-02-08 05:06:00,
2013-02-07 22:11:00,23.4,0.4,29.92,WSW,237,7.6,9.2,36,0.00,,CLR,0.00,VWS V14.01,2013-02-08 05:11:00,
2013-02-07 22:16:00,24.4,1.3,29.92,SW,235,7.2,9.2,36,0.00,,CLR,0.00,VWS V14.01,2013-02-08 05:16:00,
2013-02-07 22:21:00,23.7,0.7,29.92,WSW,243,5.8,9.2,36,0.00,,CLR,0.00,VWS V14.01,2013-02-08 05:21:00,
2013-02-07 22:26:00,23.5,1.1,29.92,West,264,7.6,9.2,37,0.00,,CLR,0.00,VWS V14.01,2013-02-08 05:26:00,
2013-02-07 22:31:00,24.1,1.6,29.92,WSW,240,6.3,9.2,37,0.00,,CLR,0.00,VWS V14.01,2013-02-08 05:31:00,
2013-02-07 22:36:00,24.1,1.0,29.92,WSW,239,7.6,8.1,36,0.00,,CLR,0.00,VWS V14.01,2013-02-08 05:36:00,
2013-02-07 22:41:00,24.8,2.2,29.92,SW,230,7.6,8.1,37,0.00,,CLR,0.00,VWS V14.01,2013-02-08 05:41:00,
2013-02-07 22:46:00,25.3,2.1,29.92,WSW,241,8.1,9.6,36,0.00,,CLR,0.00,VWS V14.01,2013-02-08 05:46:00,
2013-02-07 22:51:00,26.1,2.8,29.92,WSW,245,8.7,9.6,36,0.00,,CLR,0.00,VWS V14.01,2013-02-08 05:51:00,
2013-02-07 22:56:00,26.4,2.5,29.92,SW,231,8.7,9.6,35,0.00,,CLR,0.00,VWS V14.01,2013-02-08 05:56:00,
2013-02-07 23:01:00,27.0,3.0,29.92,WSW,257,9.2,10.5,35,0.00,,CLR,0.00,VWS V14.01,2013-02-08 06:01:00,
2013-02-07 23:06:00,26.6,2.7,29.92,SW,227,7.6,10.5,35,0.00,,CLR,0.00,VWS V14.01,2013-02-08 06:06:00,
2013-02-07 23:11:00,27.3,3.3,29.92,SW,231,7.6,10.5,35,0.00,,CLR,0.00,VWS V14.01,2013-02-08 06:11:00,
2013-02-07 23:16:00,26.4,3.1,29.92,SW,235,7.6,10.5,36,0.00,,CLR,0.00,VWS V14.01,2013-02-08 06:16:00,
2013-02-07 23:21:00,25.7,2.5,29.92,West,260,5.8,10.5,36,0.00,,CLR,0.00,VWS V14.01,2013-02-08 06:21:00,
2013-02-07 23:26:00,25.3,1.5,29.92,SW,233,8.3,10.5,35,0.00,,CLR,0.00,VWS V14.01,2013-02-08 06:26:00,
2013-02-07 23:31:00,27.5,3.5,29.92,SW,228,8.3,10.5,35,0.00,,CLR,0.00,VWS V14.01,2013-02-08 06:31:00,
2013-02-07 23:36:00,28.6,3.8,29.92,WSW,250,8.1,8.3,34,0.00,,CLR,0.00,VWS V14.01,2013-02-08 06:36:00,
2013-02-07 23:41:00,28.6,3.1,29.92,SW,220,7.6,9.6,33,0.00,,CLR,0.00,VWS V14.01,2013-02-08 06:41:00,
2013-02-07 23:46:00,28.4,3.6,29.92,SW,218,8.7,9.6,34,0.00,,CLR,0.00,VWS V14.01,2013-02-08 06:46:00,
2013-02-07 23:51:00,27.9,3.2,29.92,SW,222,4.0,9.6,34,0.00,,CLR,0.00,VWS V14.01,2013-02-08 06:51:00,
2013-02-07 23:56:00,27.9,3.2,29.92,SW,235,7.6,9.6,34,0.00,,CLR,0.00,VWS V14.01,2013-02-08 06:56:00,